NOAA 17 DEB, 48738

Orbit data source: Space-Track

NOAA 17 DEB, 48738 is space debris in SSO originally from a launch on Mon, 24 Jun 2002 UTC launched from the Air Force Western Test Range (AFWTR). Debris objects in space refer to the collection of defunct objects orbiting the Earth. Examples of debris include non-operational satellites, rocket bodies, and fragments generated from explosions, collisions, or faulty payload assembly.

Loading next visibility...
Identifier
48738, 2002-032BX
Orbit
SSO
Country
Flag of USUS
Related business
Manufacturer
Unknown
Mission
Spacecraft
Bus & Motor
Unknown
Mass
Unknown
Launch date (UTC)
2002-06-24 (23 years ago)
Launch vehicle
Unknown
Launch site
Air Force Western Test Range (AFWTR)
Object type
Payload
Rocket body
Debris
Shape & HBR
Unknown shape, 0.1 m
Radar Cross Section
Small (<0.1 m²)

Expand to show TLE details & history
Last TLE update: 2 days ago

TLE from 2 days ago
0 NOAA 17 DEB
1 48738U 02032BX  25348.21513674  .00004648  00000-0  21322-2 0  9992
2 48738  98.7322 264.9306 0092946 262.9821  96.0777 14.19494769243338
Epoch: 2025-12-14T05:09Z
TLE epoch observation values (Epoch: 2025-12-14T05:09:47.814Z)
Latitude
-0.00003°
Longitude
104.35012°
Altitude
837.682 km
Speed
7.43 km/s
True Right ascension
17h 39m 43s
True Declination
0° 00' 00"
Sunlit
Object was in daylight at epoch
Visualization orbit readout
Latitude
Unknown
Longitude
Unknown
Altitude
Unknown
Speed
Unknown
Apparent Right ascension
Unknown
Apparent Declination
Unknown
Sunlit
N/A
Visualization observer readout
Local Sidereal Time
22:47:49
Azimuth
Unknown
Elevation
Unknown
Doppler factor
Unknown
Orbital elements
Apogee altitude
891.165 km
Perigee altitude
757.279 km
Semi-major axis
7,202.359 km
Eccentricity
0.00929
Inclination
98.7322°
RAAN
264.9306°
Arg. of periapsis
262.9821°
True anomaly
97.13543°
Mean anomaly
96.0777°
Eccentric anomaly
96.6067°
Mean motion
3.55084 °/min
Orbital period
101.38 mins
BSTAR
0.0021322
Loading maneuver chart data...
Computing Atmospheric mass density...

Documentation

Showing up to 5 results
|